THY25MD LTFM-LYTV

Flight info

Callsign THY25MD
Flight time N/A
Altitude 36000
Route VADEN1D/35L VADEN N618 BAKLO DCT LETNI DCT MAVAR DCT RETRA/N0382F200 L604 POD
Aircraft B77L/H-SDE1E2E3FGHIJ2J3J4J5M1RWXY/LB1D1

Departure

Time 2026-05-04 20:56
Airport İstanbul Airport (LTFM)

Arrival

Time N/A
Airport Tivat Airport (LYTV)
Time Latitude Longitude Altitude Speed Heading
2026-05-04 20:17 41.26878 28.71950 181 ft 0 kts 359°
2026-05-04 20:47 41.26871 28.71950 181 ft 3 kts
2026-05-04 20:47 41.26851 28.71949 181 ft 3 kts
2026-05-04 20:47 41.26830 28.71945 181 ft 3 kts
2026-05-04 20:47 41.26823 28.71943 181 ft 2 kts
2026-05-04 20:48 41.26825 28.71944 181 ft 1 kts
2026-05-04 20:48 41.26836 28.71946 181 ft 2 kts
2026-05-04 20:48 41.26851 28.71949 181 ft 0 kts
2026-05-04 20:50 41.26854 28.71951 181 ft 2 kts 17°
2026-05-04 20:50 41.26858 28.72001 181 ft 12 kts 121°
2026-05-04 20:50 41.26808 28.72074 181 ft 9 kts 121°
2026-05-04 20:51 41.26790 28.72157 181 ft 10 kts 98°
2026-05-04 20:51 41.26777 28.72243 181 ft 10 kts 117°
2026-05-04 20:51 41.26683 28.72285 181 ft 17 kts 178°
2026-05-04 20:51 41.26566 28.72288 181 ft 17 kts 181°
2026-05-04 20:52 41.26450 28.72290 181 ft 17 kts 177°
2026-05-04 20:52 41.26333 28.72296 180 ft 17 kts 178°
2026-05-04 20:52 41.26262 28.72298 180 ft 0 kts 180°
2026-05-04 20:53 41.26238 28.72304 180 ft 7 kts 163°
2026-05-04 20:53 41.26204 28.72371 180 ft 9 kts 98°
2026-05-04 20:53 41.26201 28.72466 180 ft 6 kts 89°
2026-05-04 20:53 41.26233 28.72518 179 ft 11 kts 14°
2026-05-04 20:54 41.26297 28.72522 180 ft 4 kts
2026-05-04 20:54 41.26298 28.72522 180 ft 0 kts
2026-05-04 20:55 41.26299 28.72522 180 ft 2 kts
2026-05-04 20:55 41.26350 28.72520 181 ft 23 kts 358°
2026-05-04 20:56 41.27037 28.72507 180 ft 124 kts 359°
2026-05-04 20:56 41.28093 28.72478 295 ft 165 kts 360°
2026-05-04 20:56 41.29177 28.72613 1066 ft 156 kts
2026-05-04 20:56 41.30270 28.72692 1750 ft 158 kts 356°
2026-05-04 20:57 41.30986 28.72602 2263 ft 154 kts 349°
2026-05-04 20:57 41.32054 28.72342 2795 ft 167 kts
2026-05-04 20:57 41.33301 28.72445 3067 ft 193 kts
2026-05-04 20:57 41.34742 28.72495 3424 ft 218 kts
2026-05-04 20:58 41.36273 28.72520 4233 ft 220 kts
2026-05-04 20:58 41.37763 28.72003 4860 ft 228 kts 336°
2026-05-04 20:58 41.39059 28.70705 4983 ft 240 kts 320°
2026-05-04 20:58 41.40064 28.68883 5001 ft 247 kts 309°
2026-05-04 20:59 41.40940 28.66913 4996 ft 246 kts 307°
2026-05-04 20:59 41.41788 28.64945 4986 ft 245 kts 307°
2026-05-04 20:59 41.42655 28.62951 4996 ft 252 kts 307°
2026-05-04 20:59 41.43548 28.60912 5763 ft 256 kts 308°
2026-05-04 21:00 41.44452 28.58861 6712 ft 258 kts 308°
2026-05-04 21:00 41.45381 28.56769 7530 ft 264 kts 308°
2026-05-04 21:00 41.46385 28.54727 8446 ft 264 kts 312°
2026-05-04 21:00 41.47459 28.52756 9276 ft 269 kts 313°